Location: Malanoce
(44.2500°N, 7.4667°E)
Time: 21:52:13
(UTC+00:00)

Okean 2 Rocket - Pass Details

Date: 17 November 2025
Orbit: 611 x 635 km, 82.5° (Epoch: 11 December)

Event Time Altitude Azimuth Distance (km) Brightness Sun altitude
Rises 18:28:51 0° 206° (SSW) 2,887 6.8 -26.3°
Reaches altitude 10° 18:31:11 10° 214° (SSW) 1,982 6.0 -26.7°
Maximum altitude 18:35:19 39° 284° (WNW) 924 4.3 -27.4°
Enters shadow 18:37:51 21° 342° (NNW) 1,419 5.0 -27.9°
